Location: Fontevrault
(47.1823°N, 0.0493°E)
Time: 15:49:45
(UTC+00:00)

Okean 2 - Pass Details

Date: 16 June 2021
Orbit: 560 x 575 km, 82.5° (Epoch: 31 July)

Event Time Altitude Azimuth Distance (km) Brightness Sun altitude
Rises 20:39:32 0° 189° (S) 2,747 6.5 -6.2°
Reaches altitude 10° 20:41:42 10° 190° (S) 1,854 5.7 -6.4°
Maximum altitude 20:45:47 84° 278° (W) 572 3.5 -6.9°
Drops below altitude 10° 20:49:54 10° 8° (N) 1,863 6.6 -7.4°
Sets 20:52:05 0° 9° (N) 2,763 7.5 -7.7°
